FW2134 Weather Reports


time (UTC)temp
F
wind
direction
speed
knots
gust
knots
rain 1hr
in
rain 24hr
in
rain mn
in
humidity
%
barometer
mb
20260506160021 70 119 6.1 0.0 0.00 0.00 0.00 60 1008.3
20260506154518 71 133 6.1 0.0 0.00 0.00 0.00 57 1008.2
20260506153017 70 145 7.8 0.0 0.00 0.00 0.00 59 1008.1
20260506150016 70 150 7.8 0.0 0.00 0.00 0.00 58 1008.4
20260506144516 71 128 7.8 0.0 0.00 0.00 0.00 58 1008.4
20260506143016 70 131 7.0 0.0 0.00 0.00 0.00 59 1008.3
20260506140014 70 134 5.2 0.0 0.00 0.00 0.00 60 1008.4
20260506134513 69 168 6.1 0.0 0.00 0.00 0.00 62 1008.5
20260506133011 69 127 7.0 0.0 0.00 0.00 0.00 62 1008.6
20260506130009 67 133 6.1 0.0 0.00 0.00 0.00 65 1008.4
20260506124506 67 133 6.1 0.0 0.00 0.00 0.00 67 1008.5
20260506123006 66 124 6.1 0.0 0.00 0.00 0.00 68 1008.7
20260506120003 65 152 7.0 0.0 0.00 0.00 0.00 69 1008.8
20260506114504 65 109 7.0 0.0 0.00 0.00 0.00 70 1008.8
20260506113003 64 148 5.2 0.0 0.00 0.00 0.00 72 1008.8
20260506110104 63 69 4.3 0.0 0.00 0.00 0.00 74 1008.6
20260506104600 63 110 4.3 0.0 0.00 0.00 0.00 75 1008.7
20260506103057 62 135 5.2 0.0 0.00 0.00 0.00 76 1008.6
20260506100054 62 78 3.5 0.0 0.00 0.00 0.00 76 1008.4
20260506094616 62 100 5.2 0.0 0.00 0.00 0.00 76 1008.5
20260506093054 62 135 3.5 0.0 0.00 0.00 0.00 76 1008.5
20260506090049 63 106 4.3 0.0 0.00 0.00 0.00 76 1008.6
20260506084548 63 126 4.3 0.0 0.00 0.00 0.00 75 1008.6
20260506083046 63 119 5.2 0.0 0.00 0.00 0.00 75 1008.8
20260506073046 64 96 5.2 0.0 0.00 0.00 0.00 72 1008.8
20260506044524 66 127 4.3 0.0 0.00 0.00 0.00 64 1009.4
20260506043019 67 106 4.3 0.0 0.00 0.00 0.00 63 1009.3
20260506040037 67 72 5.2 0.0 0.00 0.00 0.00 61 1009.4
20260506034515 68 102 5.2 0.0 0.00 0.00 0.00 60 1009.3
20260506033015 68 110 6.1 0.0 0.00 0.00 0.00 58 1009.2
20260506030015 69 144 6.1 0.0 0.00 0.00 0.00 55 1009.2
20260506024519 69 145 5.2 0.0 0.00 0.00 0.00 55 1009.3
20260506023015 69 79 6.1 0.0 0.00 0.00 0.00 54 1009.2
20260506020013 69 90 5.2 0.0 0.00 0.00 0.00 54 1009.2
20260506014514 70 120 4.3 0.0 0.00 0.00 0.00 53 1009.0
20260506013013 70 119 4.3 0.0 0.00 0.00 0.00 53 1008.9
20260506010014 72 92 4.3 0.0 0.00 0.00 0.00 50 1008.5
20260506004522 74 65 4.3 0.0 0.00 0.00 0.00 45 1008.3
20260506003015 75 119 6.1 0.0 0.00 0.00 0.00 39 1008.1
20260506000011 76 87 6.1 0.0 0.00 0.00 0.00 37 1007.9
20260505234511 77 65 5.2 0.0 0.00 0.00 0.00 35 1007.7
20260505233011 78 116 7.8 0.0 0.00 0.00 0.00 33 1007.2
20260505230019 79 150 9.6 0.0 0.00 0.00 0.00 28 1007.1
20260505224510 80 120 8.7 0.0 0.00 0.00 0.00 26 1007.0
20260505223014 81 145 7.8 0.0 0.00 0.00 0.00 24 1006.9
20260505220009 82 116 9.6 0.0 0.00 0.00 0.00 27 1006.6
20260505214508 83 127 7.8 0.0 0.00 0.00 0.00 28 1006.6
20260505213007 83 75 7.8 0.0 0.00 0.00 0.00 29 1006.6
20260505210008 83 155 10.4 0.0 0.00 0.00 0.00 26 1006.4
20260505204507 84 99 10.4 0.0 0.00 0.00 0.00 28 1006.5
20260505203007 84 119 9.6 0.0 0.00 0.00 0.00 28 1006.6
20260505200005 85 141 10.4 0.0 0.00 0.00 0.00 26 1006.7
20260505194505 85 85 7.0 0.0 0.00 0.00 0.00 25 1006.8
20260505193002 85 154 7.8 0.0 0.00 0.00 0.00 26 1007.1
20260505190100 85 138 6.1 0.0 0.00 0.00 0.00 28 1007.7
20260505184559 85 117 7.0 0.0 0.00 0.00 0.00 28 1007.8
20260505183057 85 123 6.1 0.0 0.00 0.00 0.00 32 1007.9
20260505181659 85 193 6.1 0.0 0.00 0.00 0.00 30 1008.0
20260505180059 84 71 6.1 0.0 0.00 0.00 0.00 30 1008.2
20260505174603 84 114 6.1 0.0 0.00 0.00 0.00 32 1008.3
20260505173056 84 135 6.1 0.0 0.00 0.00 0.00 33 1008.5
20260505171654 83 121 7.0 0.0 0.00 0.00 0.00 33 1008.6
20260505170052 83 141 5.2 0.0 0.00 0.00 0.00 36 1008.8
20260505164613 82 92 3.5 0.0 0.00 0.00 0.00 36 1008.9
20260505163053 81 133 5.2 0.0 0.00 0.00 0.00 36 1009.1